Date,TemperatureHighF,TemperatureAvgF,TemperatureLowF,DewpointHighF,DewpointAvgF,DewpointLowF,HumidityHigh,HumidityAvg,HumidityLow,PressureMaxIn,PressureMinIn,WindSpeedMaxMPH,WindSpeedAvgMPH,GustSpeedMaxMPH,PrecipitationSumIn
2013-1-1,79.3,73.0,65.6,69.3,64.0,-99.9,100,78,50,30.18,30.03,9,3,19,0.00
2013-1-2,81.7,68.3,59.8,77.7,40.0,-99.9,100,42,17,30.08,29.97,4,0,10,0.00
2013-1-3,81.4,73.1,66.4,77.1,7.0,-99.9,100,31,18,30.12,30.00,4,0,11,0.00
2013-1-4,107.9,70.1,55.2,70.3,6.6,-99.9,78,21,22,30.21,30.09,3,1,9,0.00
2013-1-5,72.8,65.8,59.1,35.0,29.5,24.5,28,26,23,30.24,30.14,4,1,10,0.10
2013-1-21,77.3,70.2,64.8,64.9,56.5,50.5,70,62,52,30.06,29.93,4,0,12,0.17
2013-1-22,74.6,67.7,62.2,72.0,34.6,-99.9,100,62,42,30.20,29.97,9,3,20,0.00
2013-1-23,73.5,66.3,60.3,73.5,48.2,-99.9,100,78,2,30.28,30.18,7,2,16,0.00
2013-1-24,73.8,64.6,58.3,69.5,41.4,-99.9,100,61,1,30.27,30.17,7,1,16,0.00
2013-1-25,63.2,58.7,57.0,63.2,34.3,-99.9,100,83,1,30.25,30.20,2,0,8,0.00
2013-1-26,76.0,66.0,55.4,75.4,51.6,-99.9,100,79,1,30.23,30.14,4,1,11,0.00
2013-1-27,77.0,67.0,61.0,77.0,59.5,-99.9,100,92,4,30.27,30.18,7,1,16,0.00
2013-1-28,79.4,72.1,50.6,79.4,62.3,-99.9,100,93,8,30.30,30.20,8,3,16,0.00
2013-1-29,79.6,71.5,63.2,99.9,50.6,-99.9,100,70,2,30.21,30.10,8,2,17,0.02
2013-1-30,80.4,73.4,66.9,80.4,66.4,-99.9,100,93,1,30.10,29.94,10,3,23,0.00
2013-1-31,71.6,66.1,57.4,70.7,50.4,-99.9,100,64,36,30.17,29.91,8,2,20,0.00
2013-2-1,71.6,61.1,52.7,66.9,55.0,44.0,98,81,64,30.24,30.13,8,3,17,0.00
2013-2-2,58.2,56.2,54.8,57.6,46.4,36.6,99,72,50,30.22,30.18,2,0,7,0.00
2013-2-3,72.8,61.8,53.7,67.7,43.3,-99.9,100,66,12,30.15,30.04,5,1,14,0.00
2013-2-4,75.2,60.9,49.8,58.9,44.5,-99.9,100,66,12,30.11,30.00,5,1,11,0.00
2013-2-5,78.2,65.4,53.1,77.4,52.1,-99.9,100,78,1,30.06,29.98,5,1,13,0.00
2013-2-6,78.1,69.6,59.3,76.9,58.5,-99.9,100,78,3,30.09,30.00,6,1,14,0.00
2013-2-7,81.8,71.8,63.8,81.8,37.7,-99.9,100,67,1,30.05,29.91,6,1,14,0.00
2013-2-8,81.3,73.0,67.7,81.3,55.9,-99.9,100,65,4,30.02,29.89,7,3,14,0.00
2013-2-9,76.8,66.7,64.1,66.6,42.3,-99.9,100,51,11,30.15,29.99,6,0,12,0.00
2013-2-10,75.2,70.8,58.5,75.2,70.8,58.5,100,100,100,30.25,30.13,9,4,17,0.00
2013-2-11,81.0,72.6,66.1,81.0,55.6,-99.9,100,82,1,30.20,30.08,7,2,16,0.00
2013-2-12,85.2,72.9,61.9,85.2,48.1,-99.9,100,70,1,30.16,29.95,7,2,15,0.00
2013-2-13,89.3,76.9,66.5,89.3,52.4,-99.9,100,66,3,30.03,29.86,11,3,18,0.00
2013-2-14,80.2,71.5,64.7,77.1,48.3,-99.9,100,58,1,29.99,29.84,12,1,25,1.51
2013-2-15,71.1,66.3,62.8,53.7,47.4,39.4,65,51,42,30.02,29.90,3,0,8,0.23
2013-2-16,69.1,63.8,62.5,58.8,54.0,51.7,74,70,65,29.94,29.85,6,1,19,0.01
2013-2-17,57.4,50.6,43.5,54.0,35.4,-99.9,100,64,21,30.27,30.05,8,4,24,0.00
2013-2-18,68.9,58.2,46.1,60.6,42.8,-99.9,81,59,44,30.28,30.18,9,3,20,0.00
2013-2-19,80.9,69.3,56.6,75.9,64.9,-99.9,100,88,73,30.18,30.06,8,2,16,0.00
2013-2-20,78.8,69.9,62.0,78.6,27.5,-99.9,100,72,1,30.09,29.99,6,1,13,0.00
2013-2-21,82.4,73.1,63.0,82.0,38.9,-99.9,100,63,1,30.10,29.97,6,2,12,0.00
2013-2-22,84.4,74.7,69.1,82.7,15.0,-99.9,100,50,1,30.08,29.99,8,3,18,0.00
2013-2-23,86.7,76.1,70.4,84.1,43.6,-99.9,100,69,1,30.02,29.89,8,3,17,0.42
2013-2-24,87.9,74.1,68.3,87.9,44.7,-99.9,100,56,3,29.99,29.87,5,1,12,0.00
2013-2-25,85.5,74.8,45.8,84.6,44.2,-99.9,100,56,1,29.95,29.79,8,2,19,0.00
2013-2-26,87.7,78.4,72.9,87.7,45.4,-99.9,100,65,1,29.89,29.77,13,4,26,0.00
2013-2-27,76.4,69.8,62.2,74.8,9.6,-99.9,100,49,1,29.96,29.84,5,1,12,0.67
2013-2-28,69.6,63.2,57.5,69.6,51.9,-99.9,100,89,64,29.98,29.89,6,2,16,0.00
2013-3-1,66.2,60.9,55.6,99.9,61.5,55.6,100,100,100,29.97,29.88,5,2,13,0.00
2013-3-2,66.0,57.6,50.9,57.4,35.1,-99.9,100,66,12,30.02,29.92,14,4,29,0.00
2013-3-3,61.9,54.2,48.9,51.0,39.3,-99.9,100,68,44,30.12,29.93,10,4,24,0.00
2013-3-4,68.5,53.4,41.4,42.8,30.8,-99.9,77,50,13,30.17,30.08,8,2,17,0.00
2013-3-5,78.4,62.6,47.9,67.6,52.2,-99.9,100,76,46,30.15,30.06,6,2,14,0.00
2013-3-6,77.4,64.1,52.9,77.0,55.0,27.5,100,78,27,30.08,29.92,11,4,25,0.00
2013-3-7,71.9,58.2,47.1,56.6,40.4,-99.9,100,56,29,30.17,30.04,6,2,17,0.00
2013-3-8,76.0,62.2,52.1,63.5,50.4,-99.9,100,73,24,30.17,30.08,4,1,13,0.00
2013-3-9,75.2,64.0,53.9,68.4,47.6,-99.9,100,71,52,30.17,30.07,8,1,17,0.00
2013-3-10,77.0,70.4,64.3,60.6,53.9,-99.9,74,58,43,30.16,30.05,8,3,18,0.00
2013-3-11,80.9,72.0,67.1,67.1,60.1,-99.9,86,70,44,30.09,29.93,6,3,17,0.00
2013-3-12,82.9,73.7,68.0,82.9,62.4,-99.9,100,92,19,29.98,29.89,8,3,19,0.00
2013-3-13,75.2,65.4,56.7,74.0,56.4,-99.9,100,83,36,30.10,29.95,6,2,16,0.00
2013-3-14,71.4,60.2,53.7,56.7,40.9,-99.9,100,63,23,30.18,30.06,9,2,20,0.00
2013-3-15,73.1,60.6,48.2,54.4,43.9,-99.9,88,66,33,30.22,30.13,5,1,16,0.00
2013-3-16,79.2,65.0,52.5,70.2,51.5,-99.9,100,73,43,30.17,30.07,5,1,14,0.00
2013-3-17,79.6,68.1,56.5,75.0,55.8,-99.9,100,81,54,30.13,30.01,8,1,16,0.00
2013-3-18,82.7,71.1,62.3,82.1,59.4,-99.9,100,92,78,30.05,29.94,9,2,20,0.53
2013-3-19,77.8,71.8,67.1,77.7,41.8,-99.9,100,71,47,30.01,29.80,10,1,24,0.01
2013-3-20,83.7,71.9,62.4,83.7,52.1,-99.9,100,77,4,29.98,29.78,9,1,23,0.00
2013-3-21,77.1,65.9,57.0,71.2,31.7,-99.9,100,62,1,29.93,29.80,7,2,19,0.00
2013-3-22,76.7,66.6,54.2,75.3,56.1,-99.9,100,92,22,29.98,29.87,6,2,15,0.01
2013-3-23,88.5,71.9,70.0,99.9,34.6,-99.9,100,68,2,29.98,29.77,8,2,17,0.00
2013-3-24,90.4,78.0,67.1,90.4,31.2,-99.9,100,63,1,29.87,29.65,14,5,28,0.00
2013-3-25,78.2,69.2,49.6,76.3,23.9,-99.9,100,52,1,29.97,29.71,8,3,18,0.00
2013-3-26,69.1,59.0,45.5,51.7,26.8,-99.9,100,36,18,30.19,29.97,12,5,27,0.00
2013-3-27,71.8,57.8,46.4,49.5,39.9,33.5,82,53,25,30.22,30.14,6,2,16,0.00
2013-3-28,74.9,61.7,50.6,52.7,46.1,28.6,92,61,24,30.24,30.15,6,1,14,0.00
2013-3-29,75.8,64.8,54.8,56.0,51.2,46.1,95,64,39,30.26,30.18,6,1,15,0.00
2013-3-30,78.4,66.3,55.6,70.4,54.9,-99.9,100,73,33,30.24,30.15,7,1,14,0.00
2013-3-31,84.3,71.4,58.4,77.3,65.2,-99.9,100,89,56,30.18,30.02,8,2,19,0.00
2013-4-1,91.0,76.7,67.1,82.4,65.9,48.8,100,72,35,30.05,29.92,10,2,19,0.00
2013-4-2,87.5,74.5,65.8,81.1,49.3,-99.9,100,74,1,30.08,29.95,5,1,12,0.00
2013-4-3,86.0,76.9,69.0,84.2,68.8,-99.9,100,88,8,30.05,29.97,7,2,17,0.00
2013-4-4,88.5,76.2,69.5,88.5,68.8,-99.9,100,91,53,30.03,29.89,16,3,39,0.42
2013-4-5,72.2,68.6,65.2,66.0,-70.7,-99.9,81,14,81,29.97,29.80,6,2,17,0.29
2013-4-6,76.8,67.6,59.0,76.8,-30.9,-99.9,100,35,1,30.04,29.89,8,3,18,0.01
2013-4-7,77.8,73.4,68.7,77.8,73.4,68.7,100,100,100,30.12,30.00,7,2,16,0.00
2013-4-8,83.9,72.6,61.1,80.2,54.6,-99.9,100,81,3,30.12,30.02,6,1,13,0.00
2013-4-9,82.6,75.4,71.2,82.6,74.1,-99.9,100,99,79,30.13,30.02,8,3,17,0.05
2013-4-10,85.1,77.2,71.1,85.1,76.4,59.4,100,98,65,30.08,29.97,8,3,21,0.00
2013-4-11,85.9,78.8,75.1,85.9,73.5,-99.9,100,92,61,30.00,29.86,10,4,22,0.00
2013-4-12,90.3,80.7,76.8,90.3,74.7,63.6,100,83,58,29.95,29.84,9,4,20,0.13
2013-4-13,86.6,76.5,71.5,86.4,33.3,-99.9,100,64,63,29.96,29.85,5,0,13,0.15
2013-4-14,87.5,79.2,71.2,87.4,1.9,-99.9,100,52,62,29.96,29.87,8,2,21,0.00
2013-4-15,91.2,78.5,70.9,91.2,-11.0,-99.9,100,44,55,30.04,29.90,12,1,24,0.78
2013-4-16,84.7,77.4,70.6,84.7,-16.2,-99.9,100,38,57,30.11,30.00,8,2,17,0.00
2013-4-17,84.0,78.2,72.5,84.0,71.0,-99.9,100,88,61,30.11,30.00,7,2,14,0.00
2013-4-18,87.1,79.7,72.7,87.1,64.2,-99.9,100,83,54,30.05,29.95,9,3,17,0.00
2013-4-19,89.8,82.1,76.3,87.4,70.1,-99.9,100,75,50,30.04,29.93,9,4,22,0.00
2013-4-20,89.8,78.5,72.2,89.8,38.5,-99.9,100,65,52,30.07,29.94,8,1,16,0.30
2013-4-21,85.4,78.0,72.1,85.4,21.1,-99.9,100,65,81,30.09,29.95,9,2,16,0.00
2013-4-22,85.6,76.1,72.0,85.6,63.3,-99.9,100,84,67,30.04,29.91,8,1,15,0.00
2013-4-23,84.3,75.8,68.0,82.8,57.1,-99.9,100,80,65,30.07,29.92,11,4,21,0.00
2013-4-24,85.3,77.2,69.0,78.9,70.4,-99.9,100,85,57,30.11,30.01,6,2,15,0.00
2013-4-25,84.4,76.0,68.2,77.0,66.7,-99.9,100,78,48,30.18,30.06,7,1,17,0.01
2013-4-26,84.1,75.9,65.5,77.1,68.7,-99.9,100,82,61,30.21,30.09,8,2,18,0.00
2013-4-27,83.4,77.5,71.6,70.9,68.0,62.6,87,73,51,30.19,30.07,8,3,21,0.00
2013-4-28,84.5,77.8,72.9,69.3,66.3,62.3,82,69,49,30.10,29.98,8,4,17,0.00
2013-4-29,87.2,78.1,71.8,77.1,72.0,66.2,100,82,60,30.02,29.92,7,2,19,0.00
2013-4-30,86.4,76.7,71.0,85.7,74.7,64.9,100,94,80,29.98,29.89,9,1,17,0.11
2013-5-1,85.3,74.8,69.7,85.3,4.2,-99.9,100,53,67,29.99,29.91,5,1,14,0.29
2013-5-2,79.5,71.7,67.7,73.2,-92.8,-99.9,81,3,81,29.93,29.79,9,2,21,1.65
2013-5-3,87.2,74.7,68.4,87.2,-37.6,-99.9,100,33,81,29.80,29.66,8,1,15,0.14
2013-5-4,87.6,76.0,67.6,87.6,-13.0,-99.9,100,48,100,29.78,29.66,7,2,15,0.07
2013-5-5,82.7,73.7,66.7,82.6,15.6,-99.9,100,54,41,29.91,29.73,7,3,18,0.03
2013-5-6,86.7,72.3,59.1,80.8,58.8,-99.9,100,79,51,30.00,29.90,4,0,13,0.03
2013-5-7,85.9,73.3,62.3,75.5,63.6,-99.9,100,80,42,30.05,29.96,6,2,17,0.00
2013-5-8,89.2,75.1,61.7,77.7,60.5,-99.9,100,72,31,30.12,30.02,5,1,13,0.00
2013-5-9,89.3,78.1,66.5,80.0,68.1,-99.9,100,85,59,30.13,30.04,6,1,13,0.00
2013-5-10,91.3,81.1,72.6,87.5,48.3,-99.9,100,74,64,30.12,30.00,7,2,15,0.00
2013-5-11,90.9,79.8,73.0,90.9,17.5,-99.9,100,61,81,30.06,29.96,7,2,17,0.12
2013-5-12,91.8,78.6,71.4,91.3,-19.3,-99.9,100,42,81,30.05,29.92,8,1,18,0.36
2013-5-13,88.4,78.5,71.2,88.4,6.4,-99.9,100,57,66,30.07,29.97,7,1,16,0.01
2013-5-14,82.0,76.5,70.2,77.3,66.2,57.0,100,73,45,30.16,30.04,8,2,18,0.00
2013-5-15,83.0,75.9,66.8,73.2,65.7,59.8,100,73,47,30.18,30.08,8,2,17,0.00
2013-5-16,86.9,76.6,65.6,78.3,67.9,62.9,100,77,51,30.11,30.02,6,2,13,0.00
2013-5-17,88.8,77.7,69.6,87.8,64.2,-99.9,100,91,81,30.08,29.99,7,2,13,0.00
2013-5-18,87.1,78.8,72.7,87.1,20.9,-99.9,100,66,81,30.12,30.01,7,2,15,0.10
2013-5-19,88.4,79.8,71.9,85.8,61.5,-99.9,100,85,76,30.09,29.98,6,2,14,0.00
2013-5-20,78.8,75.0,70.0,78.8,-27.9,-99.9,100,38,81,30.08,29.97,12,1,27,1.04
2013-5-21,83.1,75.9,69.6,82.9,-41.6,-99.9,100,31,81,30.05,29.92,8,2,16,0.10
2013-5-22,87.7,76.8,72.9,87.7,-60.0,-99.9,100,21,81,29.97,29.88,10,1,19,0.03
2013-5-23,92.4,81.2,73.3,92.1,-29.6,-99.9,100,35,58,30.03,29.89,5,1,16,0.01
2013-5-24,93.1,82.1,75.3,93.1,-11.8,-99.9,100,44,60,30.04,29.93,6,1,12,0.03
2013-5-25,86.1,80.0,74.1,84.2,25.6,-99.9,100,63,7,30.15,30.02,9,3,19,0.01
2013-5-26,85.3,78.3,68.9,82.1,67.8,-99.9,100,83,2,30.16,30.09,9,3,17,0.01
2013-5-27,84.6,78.6,72.9,84.6,56.5,-99.9,100,87,82,30.14,30.06,9,4,18,0.01
2013-5-28,84.2,78.3,73.6,84.2,20.9,-99.9,100,67,81,30.10,30.02,9,5,22,0.26
2013-5-29,81.5,75.3,71.1,81.5,-72.9,-99.9,100,15,81,30.09,30.01,11,4,25,2.47
2013-5-30,84.1,78.3,71.7,84.1,-5.9,-99.9,100,51,81,30.08,29.99,14,7,24,0.07
2013-5-31,84.5,78.8,74.9,84.5,-19.4,-99.9,100,44,81,30.06,29.99,10,5,21,0.07
2013-6-1,84.6,76.7,73.8,73.9,-96.3,-99.9,81,2,81,30.02,29.94,6,1,13,1.40
2013-6-2,89.1,78.6,72.0,89.0,-52.1,-99.9,100,26,81,29.99,29.90,6,0,13,0.03
2013-6-3,86.5,78.5,72.6,86.0,-75.5,-99.9,100,13,81,30.02,29.89,5,0,14,0.75
2013-6-4,84.7,78.6,73.6,84.5,-84.9,-99.9,100,7,81,30.04,29.94,3,0,9,0.05
2013-6-5,83.2,80.6,78.2,76.8,-93.2,-99.9,81,3,81,30.01,29.89,6,1,12,0.11
2013-6-6,87.8,80.0,74.1,82.9,-92.9,-99.9,100,3,81,29.89,29.76,13,5,34,1.37
2013-6-7,90.8,77.7,73.8,90.8,-68.3,-99.9,100,16,81,29.98,29.82,10,1,20,0.43
2013-6-8,86.4,78.2,74.1,75.0,-99.1,-99.9,81,0,81,30.10,29.95,6,1,13,0.97
2013-6-9,89.1,82.3,77.3,89.1,-11.9,-99.9,100,47,81,30.11,30.01,8,3,17,0.01
2013-6-10,89.2,83.3,79.2,89.2,-7.8,-99.9,100,49,81,30.12,30.00,7,2,13,0.00
2013-6-11,90.1,82.8,78.7,90.1,-15.5,-99.9,100,45,81,30.10,29.99,6,1,13,0.13
2013-6-12,90.3,79.8,76.2,88.7,-64.2,-99.9,100,18,81,30.14,29.99,4,0,11,0.10
2013-6-13,91.4,80.4,74.3,91.4,-31.1,-99.9,100,37,81,30.05,29.92,7,0,14,0.00
2013-6-14,94.7,82.2,74.6,92.0,-3.4,-99.9,100,46,1,29.99,29.87,7,1,15,0.00
2013-6-15,92.3,83.1,75.0,92.2,-1.0,-99.9,100,52,79,30.05,29.91,5,0,11,0.00
2013-6-16,94.4,83.8,76.0,91.5,-2.9,-99.9,100,50,8,30.09,30.01,5,1,12,0.00
2013-6-17,93.3,84.9,77.3,92.0,24.8,-99.9,100,64,1,30.09,30.00,7,1,14,0.00
2013-6-18,94.1,84.9,77.1,91.4,15.5,-99.9,100,56,6,30.07,29.97,6,1,14,0.00
2013-6-19,95.0,85.0,78.3,93.0,10.4,-99.9,100,54,1,30.05,29.97,6,1,14,0.00
2013-6-20,94.1,83.2,73.8,90.8,31.7,-99.9,100,63,1,30.09,30.00,9,1,21,0.00
2013-6-21,93.4,85.1,76.1,90.1,34.9,-99.9,100,63,62,30.10,30.01,6,1,14,0.00
2013-6-22,91.9,84.2,76.3,88.5,56.0,-99.9,100,74,1,30.10,30.02,6,2,14,0.00
2013-6-23,92.3,83.9,77.3,89.1,42.0,-99.9,100,71,4,30.12,30.05,7,2,16,0.01
2013-6-24,90.5,84.6,79.5,88.1,65.2,-99.9,100,72,1,30.16,30.07,8,3,15,0.00
2013-6-25,92.4,84.5,79.4,89.7,48.5,-99.9,100,71,1,30.12,30.03,7,2,15,0.00
2013-6-26,93.3,83.6,77.7,89.9,10.5,-99.9,100,52,1,30.07,30.00,7,2,15,0.10
2013-6-27,91.0,82.0,77.2,91.0,7.7,-99.9,100,55,1,30.06,29.95,6,0,12,0.01
2013-6-28,95.3,83.8,74.0,89.6,-4.1,-99.9,100,44,10,30.00,29.85,10,1,21,0.21
2013-6-29,94.9,85.9,76.0,92.6,37.2,-99.9,100,66,67,29.90,29.80,11,2,25,0.74
2013-6-30,90.0,79.4,74.1,90.0,-58.3,-99.9,100,20,5,29.94,29.85,10,2,34,2.08
2013-7-1,89.4,79.3,75.6,88.9,-89.4,-99.9,100,5,81,29.99,29.91,10,2,24,0.01
2013-7-2,90.0,83.0,75.6,90.0,-56.1,-99.9,100,17,2,30.07,29.97,7,2,19,0.03
2013-7-11,91.8,82.7,75.6,91.1,-4.4,-99.9,100,43,3,30.03,29.93,7,1,14,0.00
2013-7-12,91.4,79.9,73.4,90.1,-38.1,-99.9,100,29,9,30.00,29.89,9,1,20,2.57
2013-7-13,85.0,75.4,72.9,67.6,-99.0,-99.9,81,0,81,30.04,29.91,11,0,21,1.12
2013-7-14,88.6,77.6,72.7,87.7,-81.8,-99.9,100,7,24,30.10,29.98,7,1,17,0.13
2013-7-15,89.4,79.7,72.4,89.4,-50.6,-99.9,100,22,1,30.15,30.01,7,1,21,0.54
2013-7-16,82.5,77.3,72.7,82.5,-80.7,-99.9,100,9,1,30.16,30.05,12,2,25,0.38
2013-7-17,82.0,78.2,74.4,81.8,-92.4,-99.9,100,4,96,30.15,30.05,6,1,13,0.08
2013-7-18,88.0,77.8,72.8,84.5,-94.9,-99.9,100,3,81,30.14,30.06,9,1,22,0.75
2013-7-19,84.4,75.5,74.1,71.7,-95.2,-99.9,81,2,81,30.12,30.08,3,0,9,0.00
2013-7-27,91.8,80.3,75.9,91.8,-75.1,-99.9,100,12,12,30.02,29.92,5,0,14,0.74
2013-7-28,84.0,78.6,73.8,-99.9,-99.9,-99.9,0,0,100,30.11,29.95,4,0,16,0.73
2013-7-29,91.2,81.8,74.9,90.9,-65.2,-99.9,100,14,16,30.15,30.02,6,1,14,0.00
2013-7-30,91.0,83.8,75.4,91.0,-48.0,-99.9,100,24,8,30.19,30.07,5,1,14,0.13
2013-7-31,92.1,84.5,77.9,92.1,-2.2,-99.9,100,50,33,30.13,30.01,7,2,16,0.00
2013-8-1,91.2,83.7,77.5,91.2,8.0,-99.9,100,52,18,30.06,29.95,6,2,16,0.00
2013-8-2,92.3,81.1,76.2,92.3,-41.1,-99.9,100,28,14,30.06,29.92,4,0,11,0.05
2013-8-3,86.6,77.9,72.9,68.8,-97.8,-99.9,82,1,82,30.17,30.00,10,0,29,0.61
2013-8-4,93.9,81.4,75.1,93.9,-60.0,-99.9,100,18,9,30.12,29.98,9,1,24,0.06
2013-8-5,92.3,81.2,76.2,92.3,-76.2,-99.9,100,11,27,30.05,29.95,7,1,19,0.25
2013-8-6,92.6,82.5,76.0,92.6,-44.8,-99.9,100,24,7,30.00,29.90,5,0,12,0.00
2013-8-7,91.4,83.7,77.0,90.9,-33.4,-99.9,100,29,6,30.00,29.90,7,1,17,0.00
2013-8-8,92.5,85.4,80.4,92.4,19.5,-99.9,100,58,19,30.03,29.93,8,3,17,0.01
2013-8-9,90.5,83.1,78.1,90.5,-9.6,-99.9,100,35,1,30.08,29.96,9,2,18,0.22
2013-8-10,92.7,85.0,79.1,92.7,14.9,-99.9,100,53,1,30.13,30.05,8,2,16,0.02
2013-8-11,92.4,85.4,80.1,92.4,8.4,-99.9,100,50,5,30.15,30.07,6,2,13,0.00
2013-8-12,91.3,83.7,76.3,91.1,5.7,-99.9,100,53,6,30.12,30.03,6,2,15,0.00
2013-8-13,94.6,85.4,78.2,93.7,12.3,-99.9,100,51,2,30.06,29.96,6,1,14,0.00
2013-8-14,93.9,82.7,76.6,93.1,-39.3,-99.9,100,30,3,30.04,29.95,5,0,12,0.00
2013-8-15,90.0,83.8,75.9,90.0,-27.9,-99.9,100,29,4,30.08,29.98,4,1,11,0.01
2013-8-16,93.6,84.9,78.2,93.6,-22.3,-99.9,100,35,1,30.09,29.99,5,1,13,0.00
2013-8-17,93.4,85.9,80.2,93.4,-2.9,-99.9,100,44,2,30.09,30.01,7,2,15,0.00
2013-8-18,92.2,85.7,81.3,92.2,20.1,-99.9,100,56,1,30.10,30.01,8,3,17,0.00
2013-8-19,93.1,86.0,81.1,91.9,30.5,-99.9,100,59,1,30.09,29.97,8,2,17,0.00
2013-8-20,92.8,85.0,78.1,91.7,9.7,-99.9,100,50,1,30.09,29.99,8,2,16,0.00
2013-8-21,89.9,83.6,79.0,89.8,-25.4,-99.9,100,33,1,30.10,30.00,9,3,18,0.16
2013-8-22,91.8,84.3,77.7,91.8,-2.4,-99.9,100,43,1,30.08,29.97,7,2,15,0.12
2013-8-23,92.2,83.6,76.6,92.2,1.5,-99.9,100,43,4,30.05,29.94,7,1,14,0.00
2013-8-24,93.7,84.6,77.1,92.4,5.3,-99.9,100,46,5,30.13,29.98,7,1,13,0.00
2013-8-25,89.5,82.1,77.7,89.5,2.1,-99.9,100,47,5,30.17,30.04,6,1,12,0.00
2013-8-26,91.4,81.3,72.2,91.2,-8.2,-99.9,100,41,1,30.14,30.03,10,1,21,1.55
2013-8-27,84.3,78.4,73.8,83.5,-52.4,-99.9,100,19,7,30.09,29.98,2,0,9,0.01
2013-8-28,88.8,79.9,74.3,88.5,-48.9,-99.9,100,23,1,30.06,29.93,10,1,21,0.27
2013-8-29,91.4,82.3,74.8,91.4,-4.0,-99.9,100,43,2,30.05,29.94,6,1,14,0.00
2013-8-30,93.3,83.9,76.0,91.2,9.6,-99.9,100,51,1,30.04,29.92,7,1,14,0.00
2013-8-31,92.2,81.4,74.4,92.2,3.3,-99.9,100,48,1,30.00,29.93,6,1,14,0.06
2013-9-1,90.9,80.4,74.3,89.8,-43.3,-99.9,100,23,2,30.05,29.92,4,0,11,0.01
2013-9-2,95.3,78.5,73.9,95.1,-66.5,-99.9,100,16,9,30.08,29.94,13,0,27,2.30
2013-9-3,90.4,79.8,72.6,87.9,-55.0,-99.9,100,14,1,30.07,29.95,3,0,9,0.00
2013-9-4,89.5,82.5,78.0,89.2,-66.7,-99.9,100,18,82,30.09,29.96,4,0,11,0.00
2013-9-5,92.3,84.7,79.7,92.3,-9.0,-99.9,100,39,2,30.11,30.01,6,1,13,0.02
2013-9-6,92.1,84.3,78.2,92.1,-7.7,-99.9,100,41,2,30.08,29.94,6,1,13,0.10
2013-9-7,86.8,79.9,74.0,86.4,-46.9,-99.9,100,22,1,30.02,29.92,7,0,17,0.55
2013-9-8,86.8,77.1,73.9,69.9,-95.4,-99.9,82,2,81,30.05,29.89,7,0,15,0.00